Regional Weather Roundup
Issued by NWS

Home | Current Version | Previous Version | Graphics & Text | Print | Product List | Glossary On
Versions: 1 2 3 4 5 6 7 8 9 10 11 12 13 14 15 16 17 18 19 20 21 22 23 24 25 26 27 28 29 30 31 32 33 34 35 36 37 38 39 40 41 42 43 44 45 46 47 48 49 50
907
ASUS45 KABQ 140910
RWRNM
NEW MEXICO REGIONAL WEATHER ROUNDUP
NATIONAL WEATHER SERVICE ALBUQUERQUE NM
200 AM MST SUN FEB 14 2016

NOTE: "FAIR" MEANS FEW OR NO CLOUDS BELOW 12,000 FEET AGL WITH NO
       SIGNIFICANT WEATHER OR OBSTRUCTIONS TO VISION.

      THIS PRODUCT IS RELEASED AS TWO VERSIONS.  ONE VERSION NEAR
      THE TOP OF THE HOUR CONTAINING PRELIMINARY DATA FROM ALBUQUERQUE
      AND OTHER STATIONS.  A FINAL VERSION WITH ADDITIONAL DATA IS
      ISSUED ABOUT 10 MINUTES AFTER THE HOUR.

NMZ501-503-504-510>518-141000-
NORTHWEST PLATEAU/NORTHCENTRAL MOUNTAINS

CITY           SKY/WX    TMP DP  RH WIND       PRES   REMARKS
FARMINGTON     FAIR      36  24  62 W6        30.15R WCI  31
LOS ALAMOS     FAIR      41  15  34 E3        30.15S
SANTA FE       FAIR      42  17  36 N10       30.11R
TAOS           FAIR      28  19  69 CALM      30.15S
ANGEL FIRE     FAIR      22  14  71 CALM      30.16S

$$
NMZ402-403-502-505>509-141000-
WESTCENTRAL MOUNTAINS/SOUTHWEST MOUNTAINS

CITY           SKY/WX    TMP DP  RH WIND       PRES   REMARKS
GALLUP         FAIR      23  18  81 CALM      30.21R
GRANTS         FAIR      22  13  68 NW12G17   30.20R WCI  11
SILVER CITY      N/A     43  10  26 N12       30.13F

$$
NMZ407-409-411-412-141000-
SOUTHERN DESERTS

CITY           SKY/WX    TMP DP  RH WIND       PRES   REMARKS
LORDSBURG      FAIR      37  14  38 CALM      30.08F
DEMING         FAIR      40  12  32 SW5       30.08S
LAS CRUCES     FAIR      44  10  25 NW8       30.07F
HOLLOMAN AFB   FAIR      38   8  28 N9        30.03F WCI  31
ALAMOGORDO     FAIR      46  10  23 E5        30.05S
T OR C         FAIR      51  11  20 N12G21    30.08S

$$
NMZ519>523-141000-
CENTRAL VALLEYS/CENTRAL HIGHLANDS

CITY           SKY/WX    TMP DP  RH WIND       PRES   REMARKS
ALBUQUERQUE    MOCLDY    45  13  27 CALM      30.11R
DOUBLE EAGLE   FAIR      39  13  35 W5        30.12R
MORIARTY ARPT  FAIR      30  14  50 N5        30.12R WCI  25
CLINES CORNERS FAIR      37  14  38 NW15      30.09S WCI  28
BELEN          FAIR      37  12  34 N5        30.11F WCI  34
SOCORRO        FAIR      44   8  23 NW10      30.10F

$$
NMZ524>526-539-540-141000-
SOUTHCENTRAL MOUNTAINS

CITY           SKY/WX    TMP DP  RH WIND       PRES   REMARKS
RUIDOSO          N/A     45   7  21 NW12      30.14F

$$
NMZ527>531-141000-
NORTHEAST HIGHLANDS/NORTHEAST PLAINS

CITY           SKY/WX    TMP DP  RH WIND       PRES   REMARKS
LAS VEGAS      FAIR      34  11  38 N7        30.07R WCI  28
RATON          FAIR      33  13  43 N7        30.04R WCI  27
CLAYTON        FAIR      50  13  22 NW13      29.98R

$$
NMZ532>537-141000-
EASTCENTRAL PLAINS

CITY           SKY/WX    TMP DP  RH WIND       PRES   REMARKS
TUCUMCARI      FAIR      42  20  41 W8        29.96R
CANNON AFB     FAIR      42  16  34 NW10      29.95S
CLOVIS AIRPORT FAIR      39  18  41 NW10      29.96S WCI  32

$$
NMZ028-029-538-141000-
SOUTHEAST PLAINS

CITY           SKY/WX    TMP DP  RH WIND       PRES   REMARKS
ROSWELL        FAIR      44  17  33 CALM      29.97F
ARTESIA        FAIR      43  18  36 N7        29.98F
CARLSBAD       FAIR      40  24  53 CALM      29.97R
HOBBS          FAIR      41  41 100 SW5       29.98F


$$




USA.gov is the U.S. government's official web portal to all federal, state and local government web resources and services.